Find USA 619

NORAD ID: 69646 Int'l Des: 2026-141 Owner: NROC Country: US operational
LEOCIRCULARRETROGRADE

当前视图

正在加载3D地球...

About USA 619

USA 619 (NORAD 69646) is a satellite launched Jun 19, 2026 by NROC of US. It operates in LEO, CIRCULAR, RETROGRADE orbit with a mass of 800.00 kg.

即将过境

Passes for default location (London). Set your location on the main map for personalized predictions.

高度历史

Loading altitude history...

两行轨道根数

1 69646U 26142A 26170.97340911 .00019110 00000-0 25026-3 0 9996
2 69646 97.4466 68.4895 0083844 249.9691 109.2522 15.54435927 80
Epoch: Jun 19, 2026 • Age: 8 hours

当前状态

高度 461.6 km
速度 7.62 km/s
星下点 72.76°N, 108.11°W
发射日期 Jun 19, 2026
运行时间 1 day
类型 military

技术详情

分类 Payload
质量 800.00 kg
干质量 750.00 kg
总质量 800.00 kg
长度 0.30 m
直径 4.10 m
跨度 29.00 m
形状 Box + pan
制造商 SPXS
平台类型 Starshield
阶段状态 In Orbit
所有者/国家 NROC/US

Most Searched